| time (UTC) | temp C | wind direction | speed KPH | gust KPH | rain 1hr cm | rain 24hr cm | rain mn cm | humidity % | barometer mb |
| 20260504215404 | 19 | 245 | 11.3 | 25.7 | 0.00 | 0.00 | 0.00 | 49 | 1005.8 |
| 20260504214904 | 19 | 213 | 11.3 | 22.5 | 0.00 | 0.00 | 0.00 | 49 | 1005.7 |
| 20260504214404 | 19 | 212 | 17.7 | 27.4 | 0.00 | 0.00 | 0.00 | 49 | 1006.0 |
| 20260504213904 | 19 | 208 | 16.1 | 24.1 | 0.00 | 0.00 | 0.00 | 49 | 1005.8 |
| 20260504213404 | 20 | 210 | 11.3 | 25.7 | 0.00 | 0.00 | 0.00 | 48 | 1005.9 |
| 20260504212904 | 19 | 214 | 14.5 | 20.9 | 0.00 | 0.00 | 0.00 | 48 | 1005.8 |
| 20260504211904 | 19 | 245 | 6.4 | 25.7 | 0.00 | 0.00 | 0.00 | 48 | 1005.8 |
| 20260504211404 | 19 | 223 | 11.3 | 20.9 | 0.00 | 0.00 | 0.00 | 48 | 1005.9 |
| 20260504210904 | 19 | 214 | 14.5 | 27.4 | 0.00 | 0.00 | 0.00 | 48 | 1006.1 |
| 20260504210404 | 19 | 205 | 8.0 | 16.1 | 0.00 | 0.00 | 0.00 | 48 | 1006.1 |
| 20260504205904 | 19 | 245 | 8.0 | 19.3 | 0.00 | 0.00 | 0.00 | 47 | 1006.2 |
| 20260504205403 | 19 | 214 | 11.3 | 19.3 | 0.00 | 0.00 | 0.00 | 49 | 1006.1 |
| 20260504204903 | 18 | 196 | 9.7 | 19.3 | 0.00 | 0.00 | 0.00 | 49 | 1006.3 |
| 20260504204404 | 19 | 219 | 11.3 | 24.1 | 0.00 | 0.00 | 0.00 | 48 | 1006.3 |
| 20260504203404 | 19 | 244 | 8.0 | 19.3 | 0.00 | 0.00 | 0.00 | 48 | 1006.4 |
| 20260504202904 | 19 | 227 | 8.0 | 20.9 | 0.00 | 0.00 | 0.00 | 48 | 1006.5 |
| 20260504202404 | 19 | 221 | 9.7 | 20.9 | 0.00 | 0.00 | 0.00 | 47 | 1006.5 |
| 20260504201904 | 19 | 260 | 11.3 | 25.7 | 0.00 | 0.00 | 0.00 | 46 | 1006.6 |
| 20260504201405 | 20 | 216 | 14.5 | 27.4 | 0.00 | 0.00 | 0.00 | 46 | 1006.7 |
| 20260504200903 | 19 | 269 | 9.7 | 14.5 | 0.00 | 0.00 | 0.00 | 47 | 1006.8 |
| 20260504200404 | 19 | 217 | 6.4 | 27.4 | 0.00 | 0.00 | 0.00 | 47 | 1006.7 |
| 20260504195904 | 19 | 326 | 11.3 | 22.5 | 0.00 | 0.00 | 0.00 | 46 | 1006.7 |
| 20260504195404 | 18 | 240 | 4.8 | 14.5 | 0.00 | 0.00 | 0.00 | 47 | 1006.8 |
| 20260504194904 | 19 | 334 | 11.3 | 24.1 | 0.00 | 0.00 | 0.00 | 46 | 1006.9 |
| 20260504194404 | 19 | 282 | 9.7 | 25.7 | 0.00 | 0.00 | 0.00 | 47 | 1006.9 |
| 20260504193904 | 18 | 332 | 9.7 | 20.9 | 0.00 | 0.00 | 0.00 | 47 | 1007.1 |
| 20260504193404 | 18 | 234 | 11.3 | 20.9 | 0.00 | 0.00 | 0.00 | 48 | 1007.1 |
| 20260504192905 | 18 | 218 | 16.1 | 24.1 | 0.00 | 0.00 | 0.00 | 48 | 1007.0 |
| 20260504191905 | 18 | 350 | 12.9 | 27.4 | 0.00 | 0.00 | 0.00 | 48 | 1007.2 |
| 20260504191405 | 18 | 251 | 9.7 | 25.7 | 0.00 | 0.00 | 0.00 | 48 | 1007.2 |
| 20260504190906 | 18 | 239 | 11.3 | 25.7 | 0.00 | 0.00 | 0.00 | 49 | 1007.4 |
| 20260504190405 | 18 | 236 | 17.7 | 27.4 | 0.00 | 0.00 | 0.00 | 48 | 1007.3 |
| 20260504185905 | 18 | 268 | 14.5 | 25.7 | 0.00 | 0.00 | 0.00 | 48 | 1007.3 |
| 20260504185406 | 18 | 258 | 8.0 | 24.1 | 0.00 | 0.00 | 0.00 | 49 | 1007.4 |
| 20260504184905 | 18 | 256 | 11.3 | 24.1 | 0.00 | 0.00 | 0.00 | 49 | 1007.6 |
| 20260504184405 | 18 | 301 | 8.0 | 24.1 | 0.00 | 0.00 | 0.00 | 48 | 1007.6 |
| 20260504183905 | 18 | 260 | 11.3 | 25.7 | 0.00 | 0.00 | 0.00 | 48 | 1007.7 |
| 20260504182905 | 17 | 262 | 14.5 | 25.7 | 0.00 | 0.00 | 0.00 | 49 | 1007.8 |
| 20260504182405 | 18 | 270 | 8.0 | 22.5 | 0.00 | 0.00 | 0.00 | 49 | 1007.8 |
| 20260504181905 | 17 | 222 | 9.7 | 20.9 | 0.00 | 0.00 | 0.00 | 49 | 1007.9 |
| 20260504180905 | 17 | 254 | 14.5 | 22.5 | 0.00 | 0.00 | 0.00 | 48 | 1008.0 |
| 20260504180405 | 17 | 229 | 8.0 | 32.2 | 0.00 | 0.00 | 0.00 | 48 | 1008.0 |
| 20260504175905 | 18 | 236 | 16.1 | 32.2 | 0.00 | 0.00 | 0.00 | 48 | 1008.0 |
| 20260504175405 | 17 | 253 | 11.3 | 22.5 | 0.00 | 0.00 | 0.00 | 48 | 1008.0 |
| 20260504174405 | 17 | 230 | 11.3 | 22.5 | 0.00 | 0.00 | 0.00 | 49 | 1008.2 |
| 20260504173905 | 17 | 258 | 9.7 | 24.1 | 0.00 | 0.00 | 0.00 | 48 | 1008.2 |
| 20260504172905 | 17 | 296 | 11.3 | 27.4 | 0.00 | 0.00 | 0.00 | 48 | 1008.5 |
| 20260504172405 | 17 | 270 | 12.9 | 24.1 | 0.00 | 0.00 | 0.00 | 48 | 1008.4 |
| 20260504171905 | 17 | 255 | 11.3 | 22.5 | 0.00 | 0.00 | 0.00 | 48 | 1008.3 |
| 20260504171406 | 17 | 213 | 12.9 | 20.9 | 0.00 | 0.00 | 0.00 | 49 | 1008.5 |
| 20260504170905 | 17 | 204 | 8.0 | 27.4 | 0.00 | 0.00 | 0.00 | 49 | 1008.5 |
| 20260504170405 | 16 | 208 | 11.3 | 29.0 | 0.00 | 0.00 | 0.00 | 49 | 1008.7 |
| 20260504160406 | 16 | 251 | 12.9 | 29.0 | 0.00 | 0.00 | 0.00 | 50 | 1009.3 |
| 20260504150905 | 14 | 290 | 14.5 | 32.2 | 0.00 | 0.00 | 0.00 | 50 | 1010.2 |
| 20260504140905 | 12 | 215 | 9.7 | 24.1 | 0.00 | 0.00 | 0.00 | 51 | 1010.3 |
| 20260504140405 | 12 | 234 | 14.5 | 25.7 | 0.00 | 0.00 | 0.00 | 50 | 1010.3 |
| 20260504130404 | 11 | 231 | 11.3 | 20.9 | 0.00 | 0.00 | 0.00 | 53 | 1010.5 |
| 20260504110405 | 8 | 220 | 11.3 | 19.3 | 0.00 | 0.00 | 0.00 | 58 | 1010.7 |
| 20260504100405 | 7 | 220 | 8.0 | 12.9 | 0.00 | 0.00 | 0.00 | 60 | 1010.8 |
| 20260504081905 | 8 | 252 | 9.7 | 19.3 | 0.00 | 0.00 | 0.00 | 59 | 1011.2 |
| 20260504081404 | 8 | 257 | 11.3 | 20.9 | 0.00 | 0.00 | 0.00 | 59 | 1011.2 |
| 20260504080905 | 8 | 258 | 9.7 | 19.3 | 0.00 | 0.00 | 0.00 | 59 | 1011.1 |
| 20260504080404 | 8 | 289 | 9.7 | 19.3 | 0.00 | 0.00 | 0.00 | 59 | 1011.2 |
| 20260504070405 | 8 | 235 | 8.0 | 11.3 | 0.00 | 0.00 | 0.00 | 58 | 1011.1 |
| 20260504045405 | 9 | 296 | 9.7 | 14.5 | 0.00 | 0.00 | 0.00 | 57 | 1011.4 |
| 20260504044905 | 9 | 286 | 6.4 | 19.3 | 0.00 | 0.00 | 0.00 | 57 | 1011.4 |
| 20260504044404 | 9 | 309 | 8.0 | 11.3 | 0.00 | 0.00 | 0.00 | 57 | 1011.4 |
| 20260504043404 | 9 | 288 | 6.4 | 12.9 | 0.00 | 0.00 | 0.00 | 57 | 1011.4 |
| 20260504042904 | 9 | 317 | 8.0 | 12.9 | 0.00 | 0.00 | 0.00 | 57 | 1011.3 |
| 20260504042405 | 9 | 322 | 8.0 | 12.9 | 0.00 | 0.00 | 0.00 | 57 | 1011.2 |
| 20260504041904 | 9 | 321 | 4.8 | 11.3 | 0.00 | 0.00 | 0.00 | 57 | 1011.2 |
| 20260504041404 | 9 | 296 | 8.0 | 16.1 | 0.00 | 0.00 | 0.00 | 57 | 1011.1 |
| 20260504040904 | 9 | 294 | 4.8 | 12.9 | 0.00 | 0.00 | 0.00 | 57 | 1011.1 |
| 20260504040405 | 9 | 328 | 6.4 | 14.5 | 0.00 | 0.00 | 0.00 | 57 | 1011.1 |
| 20260504035404 | 9 | 3 | 3.2 | 9.7 | 0.00 | 0.00 | 0.00 | 57 | 1011.1 |
| 20260504034904 | 9 | 278 | 6.4 | 12.9 | 0.00 | 0.00 | 0.00 | 57 | 1011.1 |
| 20260504034404 | 9 | 308 | 6.4 | 14.5 | 0.00 | 0.00 | 0.00 | 57 | 1011.1 |
| 20260504033907 | 9 | 302 | 6.4 | 12.9 | 0.00 | 0.00 | 0.00 | 57 | 1011.0 |
| 20260504033404 | 9 | 326 | 4.8 | 9.7 | 0.00 | 0.00 | 0.00 | 57 | 1011.0 |
| 20260504032904 | 9 | 311 | 6.4 | 11.3 | 0.00 | 0.00 | 0.00 | 57 | 1011.0 |
| 20260504032404 | 9 | 308 | 4.8 | 9.7 | 0.00 | 0.00 | 0.00 | 57 | 1011.1 |
| 20260504031904 | 9 | 321 | 4.8 | 11.3 | 0.00 | 0.00 | 0.00 | 56 | 1011.1 |
| 20260504031404 | 9 | 278 | 3.2 | 11.3 | 0.00 | 0.00 | 0.00 | 57 | 1011.1 |
| 20260504030904 | 9 | 327 | 6.4 | 14.5 | 0.00 | 0.00 | 0.00 | 56 | 1011.0 |
| 20260504025904 | 9 | 333 | 4.8 | 14.5 | 0.00 | 0.00 | 0.00 | 56 | 1011.1 |
| 20260504024904 | 9 | 330 | 3.2 | 9.7 | 0.00 | 0.00 | 0.00 | 56 | 1011.1 |
| 20260504024403 | 9 | 342 | 4.8 | 9.7 | 0.00 | 0.00 | 0.00 | 56 | 1011.1 |
| 20260504023904 | 9 | 263 | 4.8 | 11.3 | 0.00 | 0.00 | 0.00 | 56 | 1011.1 |
| 20260504023405 | 9 | 326 | 8.0 | 14.5 | 0.00 | 0.00 | 0.00 | 56 | 1011.1 |
| 20260504022404 | 10 | 328 | 6.4 | 11.3 | 0.00 | 0.00 | 0.00 | 55 | 1011.1 |
| 20260504021905 | 10 | 311 | 8.0 | 14.5 | 0.00 | 0.00 | 0.00 | 55 | 1011.2 |
| 20260504020904 | 10 | 295 | 4.8 | 12.9 | 0.00 | 0.00 | 0.00 | 55 | 1011.2 |
| 20260504020404 | 10 | 325 | 4.8 | 11.3 | 0.00 | 0.00 | 0.00 | 54 | 1011.2 |
| 20260504014404 | 10 | 287 | 6.4 | 19.3 | 0.00 | 0.00 | 0.00 | 54 | 1011.1 |
| 20260504013905 | 10 | 285 | 8.0 | 14.5 | 0.00 | 0.00 | 0.00 | 54 | 1011.1 |
| 20260504013404 | 10 | 267 | 4.8 | 12.9 | 0.00 | 0.00 | 0.00 | 54 | 1011.0 |
| 20260504012905 | 10 | 245 | 6.4 | 14.5 | 0.00 | 0.00 | 0.00 | 54 | 1011.0 |
| 20260504012404 | 10 | 282 | 4.8 | 11.3 | 0.00 | 0.00 | 0.00 | 53 | 1011.0 |
| 20260504011404 | 10 | 260 | 4.8 | 9.7 | 0.00 | 0.00 | 0.00 | 53 | 1010.9 |
| 20260504010404 | 10 | 316 | 6.4 | 12.9 | 0.00 | 0.00 | 0.00 | 53 | 1010.9 |
| 20260504005904 | 10 | 331 | 6.4 | 12.9 | 0.00 | 0.00 | 0.00 | 52 | 1010.9 |
| 20260504005405 | 10 | 310 | 8.0 | 12.9 | 0.00 | 0.00 | 0.00 | 52 | 1010.8 |
| 20260504004904 | 10 | 300 | 6.4 | 14.5 | 0.00 | 0.00 | 0.00 | 52 | 1010.7 |
| 20260504004404 | 10 | 342 | 8.0 | 16.1 | 0.00 | 0.00 | 0.00 | 52 | 1010.7 |
| 20260504003905 | 10 | 344 | 8.0 | 19.3 | 0.00 | 0.00 | 0.00 | 52 | 1010.7 |
| 20260504003404 | 10 | 322 | 8.0 | 14.5 | 0.00 | 0.00 | 0.00 | 51 | 1010.6 |
| 20260504002904 | 10 | 295 | 6.4 | 14.5 | 0.00 | 0.00 | 0.00 | 51 | 1010.5 |
| 20260504002404 | 10 | 323 | 6.4 | 11.3 | 0.00 | 0.00 | 0.00 | 51 | 1010.5 |
| 20260504001904 | 11 | 336 | 4.8 | 11.3 | 0.00 | 0.00 | 0.00 | 50 | 1010.4 |
| 20260504001403 | 11 | 281 | 6.4 | 12.9 | 0.00 | 0.00 | 0.00 | 50 | 1010.3 |
| 20260504000404 | 11 | 349 | 8.0 | 14.5 | 0.00 | 0.00 | 0.00 | 49 | 1010.3 |
| 20260503235904 | 11 | 310 | 6.4 | 11.3 | 0.00 | 0.00 | 0.00 | 49 | 1010.3 |
| 20260503235404 | 11 | 341 | 8.0 | 19.3 | 0.00 | 0.00 | 0.00 | 49 | 1010.2 |
| 20260503234904 | 11 | 349 | 8.0 | 19.3 | 0.00 | 0.00 | 0.00 | 49 | 1010.2 |
| 20260503234404 | 11 | 344 | 9.7 | 20.9 | 0.00 | 0.00 | 0.00 | 48 | 1010.2 |
| 20260503233904 | 11 | 317 | 6.4 | 20.9 | 0.00 | 0.00 | 0.00 | 48 | 1010.2 |
| 20260503233404 | 11 | 334 | 11.3 | 19.3 | 0.00 | 0.00 | 0.00 | 48 | 1010.0 |
| 20260503232904 | 11 | 351 | 11.3 | 19.3 | 0.00 | 0.00 | 0.00 | 48 | 1010.0 |
| 20260503231904 | 11 | 0 | 11.3 | 19.3 | 0.00 | 0.00 | 0.00 | 48 | 1009.9 |
| 20260503231404 | 11 | 0 | 14.5 | 32.2 | 0.00 | 0.00 | 0.00 | 47 | 1009.9 |
| 20260503230904 | 12 | 351 | 11.3 | 22.5 | 0.00 | 0.00 | 0.00 | 47 | 1009.9 |
| 20260503230404 | 12 | 0 | 16.1 | 29.0 | 0.00 | 0.00 | 0.00 | 46 | 1010.0 |
| 20260503225904 | 12 | 358 | 11.3 | 24.1 | 0.00 | 0.00 | 0.00 | 46 | 1009.9 |
| 20260503225404 | 12 | 340 | 14.5 | 29.0 | 0.00 | 0.00 | 0.00 | 46 | 1010.0 |
| 20260503224904 | 12 | 5 | 8.0 | 20.9 | 0.00 | 0.00 | 0.00 | 47 | 1009.9 |
| 20260503224404 | 12 | 356 | 16.1 | 29.0 | 0.00 | 0.00 | 0.00 | 46 | 1009.9 |
| 20260503223904 | 12 | 358 | 14.5 | 25.7 | 0.00 | 0.00 | 0.00 | 46 | 1009.9 |
| 20260503222903 | 12 | 354 | 16.1 | 27.4 | 0.00 | 0.00 | 0.00 | 46 | 1009.9 |
| 20260503222404 | 12 | 0 | 9.7 | 24.1 | 0.00 | 0.00 | 0.00 | 47 | 1009.9 |
| 20260503221903 | 12 | 352 | 14.5 | 27.4 | 0.00 | 0.00 | 0.00 | 46 | 1009.9 |
| 20260503221404 | 12 | 356 | 16.1 | 27.4 | 0.00 | 0.00 | 0.00 | 46 | 1009.9 |
| 20260503220904 | 12 | 353 | 17.7 | 37.0 | 0.00 | 0.00 | 0.00 | 46 | 1009.9 |
| 20260503220404 | 12 | 354 | 11.3 | 20.9 | 0.00 | 0.00 | 0.00 | 47 | 1009.9 |